Location: Lansingburgh
(42.7845°N, 73.6696°W)
Time: 15:23:28
(UTC+00:00)

Cosmos 44 - Pass Details

Date: 24 January 2020
Orbit: 595 x 767 km, 65.1° (Epoch: 25 February)

Event Time Altitude Azimuth Distance (km) Brightness Sun altitude
Rises 23:12:02 0° 218° (SW) 2,966 7.4 -13.8°
Reaches altitude 10° 23:14:23 10° 220° (SW) 2,032 6.5 -14.2°
Maximum altitude 23:18:56 70° 304° (NW) 663 3.3 -15.0°
Enters shadow 23:22:39 15° 28° (NNE) 1,690 4.9 -15.7°
